Location: Winthrop
(48.4780°N, 120.1850°W)
Time: 03:01:35
(UTC-07:00)

Transit 2A - Pass Details

Date: 16 June 2024
Orbit: 591 x 960 km, 66.7° (Epoch: 23 July)

Event Time Altitude Azimuth Distance (km) Brightness Sun altitude
Rises 21:59:43 0° 311° (NW) 3,315 11.6 -7.4°
Reaches altitude 10° 22:03:43 10° 340° (NNW) 2,475 10.0 -7.9°
Maximum altitude 22:06:10 13° 5° (N) 2,337 9.2 -8.1°
Drops below altitude 10° 22:08:42 10° 30° (NNE) 2,572 9.0 -8.4°
Sets 22:13:03 0° 58° (ENE) 3,580 9.4 -8.8°
